Regional Weather Roundup
Issued by NWS

Home | Current Version | Previous Version | Text Only | Print | Product List | Glossary On
Versions: 1 2 3 4 5 6 7 8 9 10 11 12 13 14 15 16 17 18 19 20 21 22 23 24 25 26 27 28 29 30 31 32 33 34 35 36 37 38 39 40 41 42 43 44 45 46 47 48 49 50
000
ASUS44 KFWD 011015
RWRTX
NORTH TEXAS HOURLY WEATHER ROUNDUP
NATIONAL WEATHER SERVICE FORT WORTH TX
400 AM CST SUN MAR 01 2015

NOTE: "FAIR" INDICATES FEW OR NO CLOUDS BELOW 12,000 FEET WITH NO
SIGNIFICANT WEATHER AND/OR OBSTRUCTIONS TO VISIBILITY.

TXZ118-119-011100-
DALLAS/FORT WORTH METROPLEX

CITY           SKY/WX    TMP DP  RH WIND       PRES   REMARKS
DFW AIRPORT    CLOUDY    32  31  96 N7        30.29S FOG     WCI  26
DALLAS LOVE    LGT RAIN  33  31  92 N3        30.29F FOG
FTW MEACHAM    FRZ RAIN  33  31  92 N8        30.29R FOG     WCI  26
DAL-EXECUTIVE  CLOUDY    32  32 100 N3        30.27S FOG
FTW-ALLIANCE   CLOUDY    31  30  96 N6        30.29R FOG     WCI  25
FTW-SPINKS     LGT RAIN  32  32  99 N5        30.29S WCI  27
ARLINGTON      LGT RAIN  34  30  85 N5        30.28F FOG     WCI  30
GRAND PRAIRIE  CLOUDY    32  32 100 N5        30.30F WCI  27
ADDISON        CLOUDY   N/A N/A N/A CALM      30.31R HAZE
MESQUITE       CLOUDY    33  32  98 CALM      30.29S
LANCASTER      CLOUDY    32  31  95 CALM      30.29F FOG
$$

TXZ091>094-102>105-117-120-121-131>134-011100-
NORTH CENTRAL TEXAS

CITY           SKY/WX    TMP DP  RH WIND       PRES   REMARKS
SHRMAN/DENISON CLOUDY    32  32 100 CALM      30.31S FOG
GAINESVILLE    MIX PCPN  31  30  97 N6        30.32S WCI  25
BOWIE          CLOUDY    30  30  99 N3        30.29S
BRIDGEPORT     DRIZZLE   31  31 100 N3        30.32S
DECATUR        CLOUDY    30  30 100 NW3       30.29S FOG
DENTON         FRZ RAIN  31  30  96 N6        30.30S FOG     WCI  25
MCKINNEY       CLOUDY    32  31  96 N5        30.28F FOG     WCI  27
GREENVILLE     DRIZZLE   34  32  93 CALM      30.29F
TERRELL        RAIN      35  32  88 NE6       30.29S FOG     WCI  30
WAXAHACHIE     RAIN      32  32 100 CALM      30.29S
CLEBURNE       CLOUDY    32  32 100 CALM      30.28S FOG
GRANBURY       CLOUDY    33  32  96 NW5       30.30S FOG     WCI  28
$$

TXZ083>090-098>101-113>116-127>130-139>142-154-155-011100-
WESTERN NORTH TEXAS

CITY           SKY/WX    TMP DP  RH WIND       PRES   REMARKS
WICHITA FALLS  CLOUDY    30  28  92 N7        30.30F FOG     WCI  23
WF-KICKAPOO    CLOUDY    32  31  96 N6        30.32S FOG     WCI  26
VERNON         CLOUDY    29  26  86 N3        30.32S
ABILENE        CLOUDY    29  27  92 N6        30.24F FOG     WCI  23
ABILENE-DYESS  FRZ DRZL  29  28  95 CALM      30.23S FOG
BRECKENRIDGE   CLOUDY    32  32 100 N5        30.26F WCI  27
GRAHAM         CLOUDY    31  31 100 NW3       30.28F FOG
MINERAL WELLS  CLOUDY    31  29  92 N6        30.27F FOG     WCI  25
STEPHENVILLE   CLOUDY    31  30  95 N3        30.28S
COMANCHE       FOG       31  31 100 N6        30.26S VSB 3/4 WCI  25
BROWNWOOD      CLOUDY    32  32 100 NE10      30.24F FOG     WCI  24
COLEMAN        LGT SNOW  31  31 100 NE8       30.22F WCI  24
BRADY          CLOUDY    30  30 100 N3        30.19F FOG
$$

TXZ143>147-156>162-174-175-011100-
CENTRAL TEXAS

CITY           SKY/WX    TMP DP  RH WIND       PRES   REMARKS
WACO           CLOUDY    33  32  96 N7        30.27F FOG     WCI  27
WACO-MCGREGOR    N/A     34  28  80 N9        30.27F WCI  26
HILLSBORO      DRIZZLE   34  32  93 NE6       30.26F WCI  29
CORSICANA      LGT RAIN  35  32  88 N7        30.29R FOG     WCI  29
MEXIA          LGT RAIN  33  32  97 MISG      30.25F
HEARNE         CLOUDY    36  36  99 NW7       30.26S FOG     WCI  30
CAMERON        CLOUDY    35  35  99 N13       30.25S FOG     WCI  26
TEMPLE         CLOUDY    34  28  80 N10       30.23F WCI  26
KILLEEN        FRZ DRZL  32  32 100 N7        30.22F FOG     WCI  26
KILLEEN-SKYLRK CLOUDY    34  28  80 CALM      30.23S
FORT HOOD      LGT SNOW  32  32 100 N9        30.22F FOG     WCI  24
GATESVILLE     MIX PCPN  34  34 100 CALM      30.26F
HAMILTON       CLOUDY    32  32 100 N7        30.25S FOG     WCI  26
LAMPASAS       CLOUDY    33  32  98 N3        30.22S FOG
$$

TXZ095>097-106>112-122>126-135>138-148>153-164>167-011100-
EAST TEXAS

CITY           SKY/WX    TMP DP  RH WIND       PRES   REMARKS
PARIS          CLOUDY    34  28  80 CALM      30.31F
SULPHUR SPRNGS MIX PCPN  35  34  98 NE6       30.32F WCI  30
MOUNT PLEASANT CLOUDY    35  35  99 N6        30.31F WCI  30
GILMER         LGT RAIN  34  33  97 N6        30.29R WCI  29
MINEOLA        CLOUDY    36  34  93 NE5       30.30F FOG     WCI  32
TYLER          CLOUDY    36  33  89 N9        30.26F FOG     WCI  29
LONGVIEW       CLOUDY    39  33  79 NE7       30.26F WCI  34
MARSHALL       CLOUDY    41  34  77 N8        30.29S WCI  35
ATHENS         CLOUDY    34  32  93 NE8       30.26F WCI  27
PALESTINE      LGT RAIN  37  37  99 N7        30.27S WCI  31
JACKSONVILLE   CLOUDY    37  36  96 NE5       30.26F WCI  34
HENDERSON      CLOUDY    37  34  87 N3        30.27S
NACOGDOCHES    CLOUDY    43  39  87 N3        30.25S
LUFKIN         CLOUDY    48  43  82 NW3       30.24S HAZE
$$

SUPPLEMENTAL OBSERVATIONS (CENTRAL)

CITY           SKY/WX    TMP DP  RH WIND       PRES   REMARKS
$$

SUPPLEMENTAL OBSERVATIONS (WEST)

CITY           SKY/WX    TMP DP  RH WIND       PRES   REMARKS
$$

SUPPLEMENTAL OBSERVATIONS (EAST)

CITY           SKY/WX    TMP DP  RH WIND       PRES   REMARKS
$$

SUPPLEMENTAL OBSERVATIONS ARE A COLLECTION OF AUTOMATED INSTRUMENTS
THAT ARE MAINTAINED BY A VARIETY OF FEDERAL AND STATE AGENCIES.
CERTAIN ELEMENTS...SUCH AS HUMIDITY VALUES AND SUSTAINED WIND
SPEEDS...MAY BE APPROXIMATED.




USA.gov is the U.S. government's official web portal to all federal, state and local government web resources and services.